Regional Weather Roundup
Issued by NWS

Home | Current Version | Previous Version | Text Only | Print | Product List | Glossary Off
Versions: 1 2 3 4 5 6 7 8 9 10 11 12 13 14 15 16 17 18 19 20 21 22 23 24 25 26 27 28 29 30 31 32 33 34 35 36 37 38 39 40 41 42 43 44 45 46 47 48 49 50

000
ASUS43 KOAX 281410
RWRNE

WEATHER ROUNDUP FOR NEBRASKA
NATIONAL WEATHER SERVICE OMAHA NE
900 AM CDT SAT MAY 28 2016

NOTES: SATELLITE DATA IS BEING USED TO AUGMENT CLOUD COVER ABOVE
       12000 FEET.
       "FAIR" INDICATES FEW OR NO CLOUDS BELOW 12,000 FEET WITH NO
       SIGNIFICANT WEATHER AND/OR OBSTRUCTIONS TO VISIBILITY.

  * THESE STATIONS DO NOT REPORT WEATHER SUCH AS RAIN...SNOW OR FOG.

NEZ001>004-019>022-054>056-281500-
NEBRASKA PANHANDLE

CITY           SKY/WX    TMP DP  RH WIND       PRES   REMARKS
SCOTTSBLUFF    SUNNY     52  44  74 NW9       29.95R
ALLIANCE       SUNNY     52  46  80 W7        29.93R
CHADRON        SUNNY     53  47  79 W6        29.92R
KIMBALL        SUNNY     53  44  71 NW10      29.98R
SIDNEY         SUNNY     53  46  77 W9        29.97R
$$

NEZ057>060-069>072-079>082-281500-
SOUTHWEST NEBRASKA

CITY           SKY/WX    TMP DP  RH WIND       PRES   REMARKS
NORTH PLATTE   SUNNY     56  51  84 W10       29.90R
IMPERIAL       SUNNY     57  50  77 NW7       29.93R
LEXINGTON      MOSUNNY   60  55  85 W15       29.87R
MCCOOK         SUNNY     58  54  86 W12       29.90R
OGALLALA       SUNNY     58  52  80 CALM      29.93R
$$

NEZ005>010-023>029-035>040-094-281500-
NORTH CENTRAL NEBRASKA

CITY           SKY/WX    TMP DP  RH WIND       PRES   REMARKS
VALENTINE      CLOUDY    56  51  84 NW8       29.87R
AINSWORTH      RAIN      57  53  86 NW12      29.85S
BROKEN BOW     CLOUDY    58  53  84 NW13      29.84S
O`NEILL        RAIN      57  56  94 NW8       29.80R
ORD            CLOUDY    58  55  90 NW6       29.80R
THEDFORD       CLOUDY    56  53  91 W5        29.89R
$$

NEZ041-046>049-061>064-073>077-083>087-281500-
SOUTH CENTRAL NEBRASKA

CITY           SKY/WX    TMP DP  RH WIND       PRES   REMARKS
GRAND ISLAND   CLOUDY    59  56  89 W12       29.82R
AURORA         DRIZZLE   59  57  93 NW15      29.82R
HASTINGS       CLOUDY    59  55  87 NW8       29.83R
HEBRON         LGT RAIN  59  58  95 NW7       29.83R
HOLDREGE       PTSUNNY   58  54  86 W6        29.86R
KEARNEY *      CLOUDY    57  54  88 W10       29.85R
YORK           CLOUDY    61  57  88 NW13      29.81R
$$

NEZ011>018-030>034-042>045-281500-
NORTHEAST NEBRASKA

CITY           SKY/WX    TMP DP  RH WIND       PRES   REMARKS
NORFOLK        CLOUDY    58  56  93 W13       29.73R
ALBION         DRIZZLE   57  55  92 W10       29.78S
BLAIR          PTSUNNY   62  58  87 SW7       29.77S
FREMONT        CLOUDY    62  58  87 SW5       29.78R
TEKAMAH        CLOUDY    63  58  83 S13       29.76R
WAYNE          CLOUDY    62  58  89 S8        29.73S
$$

NEZ050>053-065>068-078-088>093-281500-
SOUTHEAST NEBRASKA

CITY           SKY/WX    TMP DP  RH WIND       PRES   REMARKS
LINCOLN        CLOUDY    62  56  80 W6        29.80R
OMAHA EPPLEY   PTSUNNY   64  58  80 S9        29.77R
BEATRICE       CLOUDY    60  58  94 W7        29.81R
FALLS CITY     CLOUDY    63  60  90 W6        29.78R
NEBRASKA CITY  CLOUDY    61  60  94 SW6       29.79R
PLATTSMOUTH    CLOUDY    63  60  90 S7        29.79R
$$

NEZ044-045-051>053-067-281500-
OMAHA AREA

CITY           SKY/WX    TMP DP  RH WIND       PRES   REMARKS
OMAHA EPPLEY   PTSUNNY   64  58  80 S9        29.77R
BLAIR          PTSUNNY   62  58  87 SW7       29.77S
FREMONT        CLOUDY    62  58  87 SW5       29.78R
MILLARD        CLOUDY    64  58  83 CALM      29.78R
OFFUTT AFB     CLOUDY    63  59  88 S6        29.77R
PLATTSMOUTH    CLOUDY    63  60  90 S7        29.79R
WAHOO          PTSUNNY   62  58  87 SW7       29.78R
$$




USA.gov is the U.S. government's official web portal to all federal, state and local government web resources and services.